Miscellaneous Local Product
Issued by NWS North Platte, NE

Home | Current Version | Previous Version | Text Only | Print | Product List | Glossary On
Versions: 1 2 3 4 5 6 7 8 9 10 11 12 13 14 15 16 17 18 19 20 21 22 23 24 25 26 27 28 29 30 31 32 33 34 35 36 37 38 39 40 41 42 43 44 45 46 47 48 49 50
000
AXUS43 KLBF 161710
MISLBF


WESTERN AND NORTH CENTRAL NEBRASKA HOURLY WEATHER ROUNDUP
NATIONAL WEATHER SERVICE NORTH PLATTE NE
1200 PM CDT TUE SEP 16 2014

***STATIONS NOT REPORTING VARIABLES SUCH AS SKY/WEATHER OR
PRESSURE ARE PROVIDED BY THE NEBRASKA DEPARTMENT OF
ROADS...RAWS...AND APRS NETWORKS...AND ARE NOT UNDER
NATIONAL WEATHER SERVICE QUALITY CONTROL***

...OBSERVATIONS IN AND NEAR THE EASTERN PANHANDLE OF NEBRASKA...

CITY           SKY/WX    TMP DP  RH WIND       PRES   REMARKS
PINE RIDGE     SUNNY     67  52  58 W9        30.04F
CHADRON        SUNNY     71  48  43 NW6       30.04F
ALLIANCE       SUNNY     70  53  54 NW10      30.06F
SIDNEY         SUNNY     78  45  30 NW13G21   30.09F
WHITECLAY        N/A     69  50  49 NW6         N/A
RUSHVILLE        N/A     75  43  31 W12         N/A
CRESCENT LAKE    N/A     69  55  60 W6          N/A
LISCO            N/A     73  52  47 W10         N/A
BIG SPRINGS      N/A     65  57  76 SW7         N/A
$$

...OBSERVATIONS IN NORTH CENTRAL NEBRASKA...

CITY           SKY/WX    TMP DP  RH WIND       PRES   REMARKS
VALENTINE      SUNNY     66  52  60 S12       30.02F
THEDFORD       SUNNY     69  55  60 SW15G24   30.05F
AINSWORTH      SUNNY     65  51  60 SW17G23   30.05F
O`NEILL        SUNNY     64  51  64 S21       30.09F
ORD            SUNNY     62  51  67 S17G24    30.09F
BROKEN BOW     PTSUNNY   65  52  62 S20G26    30.09F
SPRINGVIEW       N/A     68  55  62 SW8G15      N/A
ROSE             N/A     70  59  66 SE13        N/A
NEWPORT          N/A     67  54  62 S16         N/A
COMSTOCK         N/A     70  58  64 S10         N/A
CHAMBERS         N/A     65  51  60 S15         N/A
$$

...OBSERVATIONS IN SOUTHWEST NEBRASKA AND FAR NORTHEAST COLORADO...

CITY           SKY/WX    TMP DP  RH WIND       PRES   REMARKS
WRAY           FAIR      75  55  49 S8        30.09F
HOLYOKE        FAIR      73  59  60 SW7       30.08F
IMPERIAL       SUNNY     69  54  58 S17G25    30.07F
OGALLALA       SUNNY     71  58  63 S10       30.05F
NORTH PLATTE   MOSUNNY   66  55  67 SW15      30.08F
MCCOOK         CLOUDY    65  54  67 S17       30.11F
LEXINGTON      CLOUDY    58  53  82 S14       30.12F
PAXTON           N/A     62  56  81 S12         N/A
SUTHERLAND       N/A     65  54  65 S13         N/A
BRADY            N/A     62  55  78 CALM        N/A
GOTHENBURG       N/A     58  49  73 S9          N/A
CALLAWAY         N/A     59  53  82 S16         N/A
$$

...SOME WEATHER OBSERVATIONS FROM AROUND THE REGION...

CITY           SKY/WX    TMP DP  RH WIND       PRES   REMARKS
DENVER         MOSUNNY   81  36  19 VRB3      30.19F
LARAMIE        SUNNY     71  30  21 NW15      30.30S
CHEYENNE       SUNNY     76  28  17 NW17G26   30.21F
SCOTTSBLUFF    SUNNY     70  52  52 NW10      30.09F
RAPID CITY     SUNNY     74  45  35 CALM      30.03S
PIERRE         SUNNY     65  49  56 NW3       29.98F
WINNER         FAIR      68  50  52 S17G25    30.01F
SIOUX FALLS    SUNNY     62  46  55 S13       30.12F
OMAHA          MOSUNNY   61  46  57 S9        30.21F
GRAND ISLAND   PTSUNNY   63  50  62 S14       30.16F
KANSAS CITY    MOSUNNY   62  51  67 SE6       30.21F
WICHITA        CLOUDY    68  53  58 E5        30.18F
HAYS           CLOUDY    61  48  63 S14       30.17F
LIBERAL        SUNNY     73  59  60 S15       30.19F
GOODLAND       SUNNY     69  54  58 SW15      30.13F
$$



USA.gov is the U.S. government's official web portal to all federal, state and local government web resources and services.